Location: Korczew
(51.3586°N, 19.4491°E)
Time: 17:29:28
(UTC+00:00)

Cosmos 1470 - Pass Details

Date: 19 May 2025
Orbit: 455 x 466 km, 82.5° (Epoch: 21 June)

Event Time Altitude Azimuth Distance (km) Brightness Sun altitude
Rises 21:29:29 0° 355° (N) 2,520 7.8 -17.1°
Reaches altitude 10° 21:31:41 10° 4° (N) 1,639 6.3 -17.2°
Maximum altitude 21:35:02 37° 73° (ENE) 750 3.5 -17.3°
Enters shadow 21:36:03 30° 111° (ESE) 870 3.5 -17.4°
